• In Hungary
  • List of Countries
  • For 7 days
  • Water Temperature
  • Satellite Maps
  • Weather Map
  • News
  • Weather Widgets
  • user-avatar
    Login

    Hourly Weather Makadi Bey

    Today, 18 November, Saturday

    Time Temperature Precipitation Wind Pressure Humidity
    00:00 +22°C° 0 mm 1 mps 705 mmHg 37%
    01:00 +21°C° 0 mm 1 mps 705 mmHg 37%
    02:00 +21°C° 0 mm 1 mps 705 mmHg 38%
    03:00 +21°C° 0 mm 1 mps 705 mmHg 38%
    04:00 +21°C° 0 mm 1 mps 705 mmHg 39%
    05:00 +20°C° 0 mm 1 mps 705 mmHg 40%
    06:00 +22°C° 0 mm 1 mps 705 mmHg 36%
    07:00 +23°C° 0 mm 1 mps 706 mmHg 33%
    08:00 +25°C° 0 mm 1 mps 706 mmHg 34%
    09:00 +26°C° 0 mm 1 mps 706 mmHg 33%
    10:00 +27°C° 0 mm 1 mps 706 mmHg 32%
    11:00 +28°C° 0 mm 1 mps 707 mmHg 31%
    12:00 +28°C° 0 mm 1 mps 706 mmHg 31%
    13:00 +29°C° 0 mm 1 mps 706 mmHg 30%
    14:00 +28°C° 0 mm 2 mps 706 mmHg 36%
    15:00 +27°C° 0 mm 1 mps 706 mmHg 39%
    16:00 +27°C° 0 mm 1 mps 706 mmHg 42%
    17:00 +26°C° 0 mm 1 mps 705 mmHg 45%
    18:00 +25°C° 0 mm 1 mps 706 mmHg 48%
    19:00 +25°C° 0 mm 1 mps 706 mmHg 51%
    20:00 +24°C° 0 mm 1 mps 706 mmHg 54%
    21:00 +23°C° 0 mm 1 mps 706 mmHg 56%
    22:00 +23°C° 0 mm 1 mps 706 mmHg 57%
    23:00 +22°C° 0 mm 1 mps 706 mmHg 59%

    Tomorrow, 19 November, Sunday

    Time Temperature Precipitation Wind Pressure Humidity
    00:00 +21°C° 0 mm 1 mps 705 mmHg 59%
    01:00 +19°C° 0 mm 0 mps 705 mmHg 59%
    02:00 +18°C° 0 mm 0 mps 705 mmHg 59%
    03:00 +20°C° 0 mm 1 mps 705 mmHg 60%
    04:00 +19°C° 0 mm 1 mps 705 mmHg 61%
    05:00 +19°C° 0 mm 1 mps 705 mmHg 62%
    06:00 +20°C° 0.1 mm 1 mps 705 mmHg 58%
    07:00 +22°C° 0.1 mm 1 mps 706 mmHg 54%
    08:00 +23°C° 0.1 mm 1 mps 707 mmHg 51%
    09:00 +24°C° 0 mm 1 mps 707 mmHg 46%
    10:00 +25°C° 0 mm 1 mps 707 mmHg 41%
    11:00 +27°C° 0 mm 2 mps 707 mmHg 37%
    12:00 +27°C° 0 mm 2 mps 707 mmHg 34%
    13:00 +28°C° 0 mm 3 mps 707 mmHg 32%
    14:00 +28°C° 0 mm 3 mps 707 mmHg 30%
    15:00 +27°C° 0 mm 3 mps 706 mmHg 33%
    16:00 +26°C° 0 mm 2 mps 706 mmHg 37%
    17:00 +24°C° 0 mm 2 mps 706 mmHg 40%
    18:00 +23°C° 0 mm 2 mps 706 mmHg 45%
    19:00 +23°C° 0 mm 2 mps 706 mmHg 50%
    20:00 +21°C° 0 mm 2 mps 707 mmHg 55%
    21:00 +20°C° 0 mm 2 mps 707 mmHg 59%
    22:00 +21°C° 0 mm 1 mps 707 mmHg 63%
    23:00 +20°C° 0 mm 1 mps 707 mmHg 66%

    Day after tomorrow, 20 November, Monday

    Time Temperature Precipitation Wind Pressure Humidity
    00:00 +20°C° 0 mm 1 mps 706 mmHg 68%
    01:00 +19°C° 0 mm 1 mps 706 mmHg 70%
    02:00 +19°C° 0 mm 1 mps 706 mmHg 72%
    03:00 +18°C° 0 mm 1 mps 706 mmHg 72%
    04:00 +18°C° 0 mm 1 mps 706 mmHg 72%
    05:00 +16°C° 0 mm 1 mps 706 mmHg 72%
    06:00 +19°C° 0 mm 1 mps 706 mmHg 66%
    07:00 +20°C° 0 mm 1 mps 707 mmHg 61%
    08:00 +21°C° 0 mm 1 mps 707 mmHg 55%
    09:00 +21°C° 0 mm 2 mps 708 mmHg 49%
    10:00 +23°C° 0 mm 2 mps 708 mmHg 44%
    11:00 +24°C° 0 mm 2 mps 708 mmHg 38%
    12:00 +25°C° 0 mm 3 mps 707 mmHg 34%
    13:00 +26°C° 0 mm 4 mps 707 mmHg 30%
    14:00 +26°C° 0 mm 4 mps 707 mmHg 26%
    15:00 +25°C° 0 mm 4 mps 706 mmHg 27%
    16:00 +23°C° 0 mm 4 mps 706 mmHg 27%
    17:00 +22°C° 0 mm 4 mps 706 mmHg 28%
    18:00 +21°C° 0 mm 4 mps 706 mmHg 31%
    19:00 +20°C° 0 mm 4 mps 707 mmHg 34%
    20:00 +19°C° 0 mm 3 mps 707 mmHg 37%
    21:00 +18°C° 0 mm 3 mps 707 mmHg 38%
    22:00 +17°C° 0 mm 3 mps 707 mmHg 38%
    23:00 +17°C° 0 mm 3 mps 707 mmHg 39%

    21 November, Tuesday

    Time Temperature Precipitation Wind Pressure Humidity
    00:00 +16°C° 0 mm 3 mps 707 mmHg 40%
    01:00 +16°C° 0 mm 3 mps 706 mmHg 41%
    02:00 +15°C° 0 mm 2 mps 706 mmHg 42%
    03:00 +15°C° 0 mm 2 mps 706 mmHg 44%
    04:00 +14°C° 0 mm 2 mps 706 mmHg 46%
    05:00 +14°C° 0 mm 2 mps 706 mmHg 48%
    06:00 +14°C° 0 mm 3 mps 707 mmHg 47%
    07:00 +16°C° 0 mm 3 mps 707 mmHg 46%
    08:00 +16°C° 0 mm 3 mps 708 mmHg 45%
    09:00 +18°C° 0 mm 3 mps 708 mmHg 40%
    10:00 +19°C° 0 mm 4 mps 708 mmHg 35%
    11:00 +21°C° 0 mm 4 mps 708 mmHg 30%
    12:00 +21°C° 0 mm 5 mps 707 mmHg 28%
    13:00 +22°C° 0 mm 5 mps 707 mmHg 26%
    14:00 +23°C° 0 mm 5 mps 707 mmHg 24%
    15:00 +22°C° 0 mm 5 mps 707 mmHg 27%
    16:00 +21°C° 0 mm 5 mps 706 mmHg 29%
    17:00 +20°C° 0 mm 5 mps 706 mmHg 31%
    18:00 +19°C° 0 mm 5 mps 706 mmHg 33%
    19:00 +18°C° 0 mm 4 mps 707 mmHg 36%
    20:00 +17°C° 0 mm 4 mps 707 mmHg 38%
    21:00 +16°C° 0 mm 3 mps 707 mmHg 42%
    22:00 +14°C° 0 mm 3 mps 707 mmHg 45%
    23:00 +14°C° 0 mm 3 mps 707 mmHg 49%

    22 November, Wednesday

    Time Temperature Precipitation Wind Pressure Humidity
    00:00 +13°C° 0 mm 3 mps 706 mmHg 53%
    01:00 +13°C° 0 mm 3 mps 706 mmHg 57%
    02:00 +12°C° 0 mm 3 mps 706 mmHg 61%
    03:00 +12°C° 0 mm 3 mps 706 mmHg 65%
    04:00 +11°C° 0 mm 3 mps 706 mmHg 69%
    05:00 +11°C° 0 mm 3 mps 706 mmHg 73%
    06:00 +12°C° 0 mm 3 mps 707 mmHg 69%
    07:00 +13°C° 0 mm 3 mps 707 mmHg 66%
    08:00 +13°C° 0 mm 3 mps 708 mmHg 62%
    09:00 +16°C° 0 mm 3 mps 708 mmHg 54%
    10:00 +17°C° 0 mm 3 mps 708 mmHg 46%
    11:00 +19°C° 0 mm 4 mps 708 mmHg 38%
    12:00 +19°C° 0 mm 4 mps 708 mmHg 34%
    13:00 +20°C° 0 mm 4 mps 707 mmHg 30%
    14:00 +21°C° 0 mm 4 mps 707 mmHg 27%
    15:00 +20°C° 0 mm 4 mps 707 mmHg 29%
    16:00 +19°C° 0 mm 5 mps 707 mmHg 31%
    17:00 +17°C° 0 mm 5 mps 707 mmHg 33%
    18:00 +17°C° 0 mm 4 mps 707 mmHg 37%
    19:00 +15°C° 0 mm 4 mps 707 mmHg 41%
    20:00 +14°C° 0 mm 4 mps 707 mmHg 45%
    21:00 +13°C° 0 mm 3 mps 707 mmHg 48%
    22:00 +13°C° 0 mm 3 mps 707 mmHg 50%
    23:00 +12°C° 0 mm 3 mps 707 mmHg 53%

    23 November, Thursday

    Time Temperature Precipitation Wind Pressure Humidity
    00:00 +12°C° 0 mm 3 mps 707 mmHg 55%
    01:00 +11°C° 0 mm 3 mps 707 mmHg 56%
    02:00 +11°C° 0 mm 3 mps 706 mmHg 58%
    03:00 +10°C° 0 mm 3 mps 706 mmHg 59%
    04:00 +10°C° 0 mm 2 mps 706 mmHg 60%
    05:00 +10°C° 0 mm 2 mps 706 mmHg 61%
    06:00 +12°C° 0 mm 2 mps 707 mmHg 56%
    07:00 +13°C° 0 mm 2 mps 707 mmHg 51%
    08:00 +14°C° 0 mm 2 mps 708 mmHg 47%
    09:00 +16°C° 0 mm 3 mps 708 mmHg 41%
    10:00 +17°C° 0 mm 3 mps 708 mmHg 35%
    11:00 +19°C° 0 mm 3 mps 708 mmHg 30%
    12:00 +19°C° 0 mm 3 mps 707 mmHg 28%
    13:00 +20°C° 0 mm 3 mps 707 mmHg 27%
    14:00 +21°C° 0 mm 3 mps 707 mmHg 25%
    15:00 +20°C° 0 mm 3 mps 707 mmHg 28%
    16:00 +19°C° 0 mm 3 mps 707 mmHg 31%
    17:00 +18°C° 0 mm 3 mps 707 mmHg 35%
    18:00 +17°C° 0 mm 3 mps 707 mmHg 38%
    19:00 +16°C° 0 mm 3 mps 707 mmHg 42%
    20:00 +14°C° 0 mm 3 mps 707 mmHg 45%
    21:00 +14°C° 0 mm 3 mps 707 mmHg 46%
    22:00 +15°C° 0 mm 2 mps 707 mmHg 46%
    23:00 +15°C° 0 mm 2 mps 707 mmHg 46%
    Show more